| time (UTC) | temp C | wind direction | speed KPH | gust KPH | rain 1hr cm | rain 24hr cm | rain mn cm | humidity % | barometer mb |
| 20260504100505 | 5 | 279 | 0.0 | 3.2 | 0.00 | 0.00 | 0.00 | 85 | 1014.4 |
| 20260504082005 | 6 | 350 | 0.0 | 0.0 | 0.00 | 0.00 | 0.00 | 82 | 1014.7 |
| 20260504081540 | 6 | 350 | 0.0 | 0.0 | 0.00 | 0.00 | 0.00 | 82 | 1014.7 |
| 20260504081008 | 6 | 350 | 0.0 | 0.0 | 0.00 | 0.00 | 0.00 | 81 | 1014.7 |
| 20260504080506 | 6 | 350 | 0.0 | 0.0 | 0.00 | 0.00 | 0.00 | 80 | 1014.7 |
| 20260504050505 | 5 | 336 | 0.0 | 0.0 | 0.00 | 0.00 | 0.00 | 80 | 1015.1 |
| 20260504050022 | 5 | 336 | 0.0 | 0.0 | 0.00 | 0.00 | 0.00 | 80 | 1015.0 |
| 20260504045507 | 5 | 336 | 0.0 | 0.0 | 0.00 | 0.00 | 0.00 | 80 | 1015.2 |
| 20260504045003 | 5 | 336 | 0.0 | 0.0 | 0.00 | 0.00 | 0.00 | 79 | 1015.2 |
| 20260504044506 | 5 | 336 | 0.0 | 0.0 | 0.00 | 0.00 | 0.00 | 79 | 1015.2 |
| 20260504044003 | 5 | 336 | 0.0 | 0.0 | 0.00 | 0.00 | 0.00 | 79 | 1015.1 |
| 20260504043504 | 5 | 336 | 0.0 | 0.0 | 0.00 | 0.00 | 0.00 | 79 | 1015.2 |
| 20260504043008 | 5 | 336 | 0.0 | 1.6 | 0.00 | 0.00 | 0.00 | 79 | 1015.2 |
| 20260504042505 | 5 | 336 | 0.0 | 3.2 | 0.00 | 0.00 | 0.00 | 78 | 1015.0 |
| 20260504042009 | 5 | 336 | 0.0 | 3.2 | 0.00 | 0.00 | 0.00 | 77 | 1015.2 |
| 20260504041514 | 5 | 336 | 1.6 | 1.6 | 0.00 | 0.00 | 0.00 | 76 | 1015.1 |
| 20260504041006 | 5 | 352 | 0.0 | 0.0 | 0.00 | 0.00 | 0.00 | 75 | 1015.2 |
| 20260504040508 | 5 | 352 | 0.0 | 0.0 | 0.00 | 0.00 | 0.00 | 75 | 1015.1 |
| 20260504040022 | 5 | 352 | 0.0 | 0.0 | 0.00 | 0.00 | 0.00 | 75 | 1015.0 |
| 20260504035505 | 5 | 352 | 0.0 | 0.0 | 0.00 | 0.00 | 0.00 | 76 | 1015.0 |
| 20260504035009 | 5 | 352 | 0.0 | 0.0 | 0.00 | 0.00 | 0.00 | 76 | 1015.0 |
| 20260504034524 | 5 | 352 | 0.0 | 0.0 | 0.00 | 0.00 | 0.00 | 75 | 1015.2 |
| 20260504034009 | 5 | 352 | 0.0 | 0.0 | 0.00 | 0.00 | 0.00 | 75 | 1015.1 |
| 20260504033507 | 5 | 352 | 0.0 | 0.0 | 0.00 | 0.00 | 0.00 | 74 | 1015.0 |
| 20260504033008 | 5 | 352 | 0.0 | 0.0 | 0.00 | 0.00 | 0.00 | 73 | 1015.0 |
| 20260504032504 | 5 | 352 | 0.0 | 0.0 | 0.00 | 0.00 | 0.00 | 73 | 1015.2 |
| 20260504032006 | 5 | 352 | 0.0 | 0.0 | 0.00 | 0.00 | 0.00 | 71 | 1015.0 |
| 20260504031512 | 5 | 352 | 0.0 | 0.0 | 0.00 | 0.00 | 0.00 | 72 | 1015.0 |
| 20260504031004 | 5 | 352 | 0.0 | 0.0 | 0.00 | 0.00 | 0.00 | 70 | 1015.1 |
| 20260504030506 | 5 | 352 | 0.0 | 0.0 | 0.00 | 0.00 | 0.00 | 69 | 1015.2 |
| 20260504030025 | 6 | 352 | 0.0 | 0.0 | 0.00 | 0.00 | 0.00 | 69 | 1015.1 |
| 20260504025504 | 6 | 352 | 0.0 | 3.2 | 0.00 | 0.00 | 0.00 | 66 | 1015.2 |
| 20260504025005 | 6 | 352 | 0.0 | 3.2 | 0.00 | 0.00 | 0.00 | 65 | 1015.0 |
| 20260504024524 | 6 | 352 | 0.0 | 1.6 | 0.00 | 0.00 | 0.00 | 66 | 1015.0 |
| 20260504024008 | 6 | 332 | 0.0 | 1.6 | 0.00 | 0.00 | 0.00 | 67 | 1015.1 |
| 20260504023508 | 6 | 332 | 0.0 | 0.0 | 0.00 | 0.00 | 0.00 | 67 | 1015.0 |
| 20260504023025 | 6 | 332 | 0.0 | 3.2 | 0.00 | 0.00 | 0.00 | 66 | 1015.1 |
| 20260504022509 | 6 | 332 | 0.0 | 3.2 | 0.00 | 0.00 | 0.00 | 65 | 1015.1 |
| 20260504022010 | 6 | 349 | 1.6 | 3.2 | 0.00 | 0.00 | 0.00 | 65 | 1015.1 |
| 20260504021527 | 6 | 174 | 0.0 | 8.0 | 0.00 | 0.00 | 0.00 | 66 | 1015.1 |
| 20260504021005 | 6 | 167 | 4.8 | 8.0 | 0.00 | 0.00 | 0.00 | 64 | 1015.1 |
| 20260504020505 | 7 | 313 | 0.0 | 0.0 | 0.00 | 0.00 | 0.00 | 61 | 1014.9 |
| 20260504020014 | 7 | 313 | 0.0 | 0.0 | 0.00 | 0.00 | 0.00 | 62 | 1014.8 |
| 20260504015505 | 7 | 313 | 0.0 | 0.0 | 0.00 | 0.00 | 0.00 | 62 | 1014.8 |
| 20260504015009 | 7 | 313 | 0.0 | 0.0 | 0.00 | 0.00 | 0.00 | 59 | 1014.7 |
| 20260504014530 | 7 | 313 | 0.0 | 0.0 | 0.00 | 0.00 | 0.00 | 58 | 1014.7 |
| 20260504014008 | 7 | 313 | 0.0 | 0.0 | 0.00 | 0.00 | 0.00 | 57 | 1014.6 |
| 20260504013507 | 8 | 313 | 0.0 | 0.0 | 0.00 | 0.00 | 0.00 | 57 | 1014.6 |
| 20260504013035 | 7 | 313 | 0.0 | 0.0 | 0.00 | 0.00 | 0.00 | 56 | 1014.5 |
| 20260504012508 | 8 | 313 | 0.0 | 0.0 | 0.00 | 0.00 | 0.00 | 57 | 1014.5 |
| 20260504012007 | 8 | 313 | 0.0 | 0.0 | 0.00 | 0.00 | 0.00 | 54 | 1014.4 |
| 20260504011523 | 8 | 313 | 0.0 | 1.6 | 0.00 | 0.00 | 0.00 | 54 | 1014.3 |
| 20260504011008 | 8 | 313 | 0.0 | 1.6 | 0.00 | 0.00 | 0.00 | 55 | 1014.2 |
| 20260504010513 | 9 | 17 | 0.0 | 0.0 | 0.00 | 0.00 | 0.00 | 51 | 1014.1 |
| 20260504010028 | 10 | 17 | 0.0 | 0.0 | 0.00 | 0.00 | 0.00 | 50 | 1014.2 |
| 20260504005510 | 10 | 17 | 0.0 | 1.6 | 0.00 | 0.00 | 0.00 | 48 | 1014.2 |
| 20260504005009 | 10 | 17 | 0.0 | 1.6 | 0.00 | 0.00 | 0.00 | 47 | 1014.2 |
| 20260504004517 | 10 | 17 | 1.6 | 1.6 | 0.00 | 0.00 | 0.00 | 46 | 1014.1 |
| 20260504004006 | 10 | 9 | 0.0 | 0.0 | 0.00 | 0.00 | 0.00 | 45 | 1014.0 |
| 20260504003508 | 11 | 9 | 0.0 | 0.0 | 0.00 | 0.00 | 0.00 | 45 | 1014.0 |
| 20260504003021 | 11 | 9 | 0.0 | 3.2 | 0.00 | 0.00 | 0.00 | 44 | 1014.0 |
| 20260504002510 | 11 | 9 | 0.0 | 3.2 | 0.00 | 0.00 | 0.00 | 46 | 1014.0 |
| 20260504002007 | 11 | 9 | 0.0 | 3.2 | 0.00 | 0.00 | 0.00 | 43 | 1014.0 |
| 20260504001526 | 11 | 9 | 0.0 | 0.0 | 0.00 | 0.00 | 0.00 | 41 | 1014.0 |
| 20260504001006 | 12 | 9 | 0.0 | 0.0 | 0.00 | 0.00 | 0.00 | 42 | 1014.0 |
| 20260504000505 | 12 | 9 | 0.0 | 3.2 | 0.00 | 0.00 | 0.00 | 42 | 1014.1 |
| 20260504000027 | 12 | 9 | 0.0 | 3.2 | 0.00 | 0.00 | 0.00 | 38 | 1014.1 |
| 20260503235507 | 12 | 9 | 0.0 | 3.2 | 0.00 | 0.00 | 0.00 | 40 | 1014.1 |
| 20260503235007 | 13 | 9 | 0.0 | 0.0 | 0.00 | 0.00 | 0.00 | 40 | 1014.1 |
| 20260503234527 | 13 | 9 | 0.0 | 1.6 | 0.00 | 0.00 | 0.00 | 41 | 1014.1 |
| 20260503234008 | 13 | 9 | 0.0 | 3.2 | 0.00 | 0.00 | 0.00 | 40 | 1014.0 |
| 20260503233510 | 14 | 317 | 0.0 | 3.2 | 0.00 | 0.00 | 0.00 | 37 | 1014.0 |
| 20260503233008 | 15 | 227 | 0.0 | 3.2 | 0.00 | 0.00 | 0.00 | 33 | 1014.0 |
| 20260503232504 | 15 | 20 | 0.0 | 4.8 | 0.00 | 0.00 | 0.00 | 32 | 1014.0 |
| 20260503232004 | 15 | 299 | 0.0 | 4.8 | 0.00 | 0.00 | 0.00 | 29 | 1013.9 |
| 20260503231503 | 15 | 317 | 1.6 | 4.8 | 0.00 | 0.00 | 0.00 | 29 | 1013.9 |
| 20260503231004 | 15 | 344 | 1.6 | 8.0 | 0.00 | 0.00 | 0.00 | 30 | 1013.9 |
| 20260503230507 | 15 | 5 | 1.6 | 14.5 | 0.00 | 0.00 | 0.00 | 29 | 1013.7 |
| 20260503230008 | 16 | 13 | 0.0 | 14.5 | 0.00 | 0.00 | 0.00 | 29 | 1013.8 |
| 20260503225507 | 16 | 5 | 1.6 | 12.9 | 0.00 | 0.00 | 0.00 | 28 | 1013.8 |
| 20260503225004 | 16 | 268 | 1.6 | 11.3 | 0.00 | 0.00 | 0.00 | 28 | 1013.7 |
| 20260503224527 | 16 | 255 | 3.2 | 9.7 | 0.00 | 0.00 | 0.00 | 28 | 1013.7 |
| 20260503224005 | 16 | 347 | 1.6 | 12.9 | 0.00 | 0.00 | 0.00 | 27 | 1013.7 |
| 20260503223505 | 16 | 360 | 4.8 | 12.9 | 0.00 | 0.00 | 0.00 | 26 | 1013.7 |
| 20260503223015 | 16 | 159 | 3.2 | 9.7 | 0.00 | 0.00 | 0.00 | 26 | 1013.7 |
| 20260503222502 | 16 | 216 | 1.6 | 14.5 | 0.00 | 0.00 | 0.00 | 26 | 1013.8 |
| 20260503222002 | 16 | 242 | 4.8 | 14.5 | 0.00 | 0.00 | 0.00 | 27 | 1013.8 |
| 20260503221503 | 16 | 241 | 3.2 | 17.7 | 0.00 | 0.00 | 0.00 | 27 | 1013.8 |
| 20260503221005 | 16 | 261 | 4.8 | 17.7 | 0.00 | 0.00 | 0.00 | 27 | 1013.8 |
| 20260503220503 | 16 | 321 | 4.8 | 17.7 | 0.00 | 0.00 | 0.00 | 28 | 1013.7 |
| 20260503220003 | 16 | 221 | 4.8 | 17.7 | 0.00 | 0.00 | 0.00 | 25 | 1014.0 |
| 20260503215506 | 16 | 149 | 4.8 | 11.3 | 0.00 | 0.00 | 0.00 | 28 | 1013.9 |
| 20260503215003 | 16 | 292 | 3.2 | 6.4 | 0.00 | 0.00 | 0.00 | 25 | 1013.8 |
| 20260503214509 | 16 | 280 | 1.6 | 4.8 | 0.00 | 0.00 | 0.00 | 26 | 1013.9 |
| 20260503214005 | 16 | 236 | 1.6 | 8.0 | 0.00 | 0.00 | 0.00 | 27 | 1013.9 |
| 20260503213506 | 16 | 284 | 3.2 | 14.5 | 0.00 | 0.00 | 0.00 | 27 | 1013.8 |
| 20260503213015 | 16 | 329 | 4.8 | 16.1 | 0.00 | 0.00 | 0.00 | 27 | 1013.9 |
| 20260503212506 | 16 | 18 | 4.8 | 16.1 | 0.00 | 0.00 | 0.00 | 29 | 1013.9 |
| 20260503212005 | 16 | 246 | 3.2 | 17.7 | 0.00 | 0.00 | 0.00 | 27 | 1013.9 |
| 20260503211522 | 16 | 188 | 6.4 | 17.7 | 0.00 | 0.00 | 0.00 | 27 | 1014.0 |
| 20260503211003 | 16 | 214 | 6.4 | 17.7 | 0.00 | 0.00 | 0.00 | 27 | 1014.0 |
| 20260503210503 | 16 | 286 | 6.4 | 29.0 | 0.00 | 0.00 | 0.00 | 27 | 1014.0 |
| 20260503210003 | 16 | 50 | 6.4 | 29.0 | 0.00 | 0.00 | 0.00 | 25 | 1013.9 |
| 20260503205503 | 16 | 245 | 8.0 | 19.3 | 0.00 | 0.00 | 0.00 | 28 | 1014.0 |
| 20260503205004 | 16 | 275 | 4.8 | 17.7 | 0.00 | 0.00 | 0.00 | 28 | 1014.1 |
| 20260503204508 | 16 | 345 | 11.3 | 17.7 | 0.00 | 0.00 | 0.00 | 26 | 1014.1 |
| 20260503204004 | 16 | 227 | 4.8 | 19.3 | 0.00 | 0.00 | 0.00 | 28 | 1014.1 |
| 20260503203507 | 16 | 344 | 6.4 | 19.3 | 0.00 | 0.00 | 0.00 | 28 | 1014.1 |
| 20260503203032 | 16 | 160 | 4.8 | 16.1 | 0.00 | 0.00 | 0.00 | 30 | 1014.1 |
| 20260503202508 | 16 | 27 | 6.4 | 16.1 | 0.00 | 0.00 | 0.00 | 30 | 1014.3 |
| 20260503202007 | 16 | 264 | 3.2 | 17.7 | 0.00 | 0.00 | 0.00 | 28 | 1014.2 |
| 20260503201518 | 16 | 360 | 3.2 | 17.7 | 0.00 | 0.00 | 0.00 | 29 | 1014.3 |
| 20260503201009 | 16 | 34 | 4.8 | 17.7 | 0.00 | 0.00 | 0.00 | 29 | 1014.2 |
| 20260503200508 | 16 | 21 | 8.0 | 19.3 | 0.00 | 0.00 | 0.00 | 28 | 1014.4 |
| 20260503200019 | 16 | 268 | 8.0 | 19.3 | 0.00 | 0.00 | 0.00 | 29 | 1014.4 |
| 20260503195509 | 16 | 296 | 8.0 | 19.3 | 0.00 | 0.00 | 0.00 | 30 | 1014.4 |
| 20260503195003 | 16 | 180 | 3.2 | 14.5 | 0.00 | 0.00 | 0.00 | 30 | 1014.5 |
| 20260503194503 | 16 | 240 | 6.4 | 16.1 | 0.00 | 0.00 | 0.00 | 27 | 1014.6 |
| 20260503194004 | 16 | 300 | 4.8 | 16.1 | 0.00 | 0.00 | 0.00 | 29 | 1014.7 |
| 20260503193505 | 15 | 267 | 4.8 | 16.1 | 0.00 | 0.00 | 0.00 | 30 | 1014.8 |
| 20260503193009 | 15 | 294 | 8.0 | 16.1 | 0.00 | 0.00 | 0.00 | 29 | 1014.9 |
| 20260503192504 | 15 | 263 | 4.8 | 14.5 | 0.00 | 0.00 | 0.00 | 31 | 1015.0 |
| 20260503192004 | 15 | 352 | 8.0 | 14.5 | 0.00 | 0.00 | 0.00 | 30 | 1015.1 |
| 20260503191530 | 15 | 352 | 4.8 | 14.5 | 0.00 | 0.00 | 0.00 | 32 | 1015.2 |
| 20260503191007 | 15 | 106 | 1.6 | 14.5 | 0.00 | 0.00 | 0.00 | 35 | 1015.3 |
| 20260503190508 | 14 | 29 | 3.2 | 14.5 | 0.00 | 0.00 | 0.00 | 32 | 1015.4 |
| 20260503190031 | 15 | 248 | 8.0 | 22.5 | 0.00 | 0.00 | 0.00 | 31 | 1015.3 |
| 20260503185508 | 15 | 269 | 4.8 | 22.5 | 0.00 | 0.00 | 0.00 | 32 | 1015.5 |
| 20260503185005 | 15 | 257 | 8.0 | 19.3 | 0.00 | 0.00 | 0.00 | 31 | 1015.5 |
| 20260503184526 | 15 | 18 | 4.8 | 16.1 | 0.00 | 0.00 | 0.00 | 33 | 1015.5 |
| 20260503184005 | 14 | 256 | 4.8 | 27.4 | 0.00 | 0.00 | 0.00 | 34 | 1015.6 |
| 20260503183508 | 14 | 251 | 4.8 | 27.4 | 0.00 | 0.00 | 0.00 | 31 | 1015.7 |
| 20260503183008 | 14 | 273 | 8.0 | 20.9 | 0.00 | 0.00 | 0.00 | 35 | 1015.6 |
| 20260503182505 | 14 | 192 | 4.8 | 20.9 | 0.00 | 0.00 | 0.00 | 33 | 1015.6 |
| 20260503182003 | 14 | 278 | 8.0 | 20.9 | 0.00 | 0.00 | 0.00 | 34 | 1015.7 |
| 20260503181512 | 13 | 230 | 4.8 | 16.1 | 0.00 | 0.00 | 0.00 | 35 | 1015.7 |
| 20260503181005 | 14 | 210 | 6.4 | 17.7 | 0.00 | 0.00 | 0.00 | 34 | 1015.8 |
| 20260503180507 | 15 | 331 | 9.7 | 19.3 | 0.00 | 0.00 | 0.00 | 33 | 1015.7 |
| 20260503180016 | 14 | 271 | 8.0 | 19.3 | 0.00 | 0.00 | 0.00 | 34 | 1015.6 |
| 20260503175506 | 13 | 281 | 3.2 | 16.1 | 0.00 | 0.00 | 0.00 | 34 | 1015.7 |
| 20260503175006 | 14 | 275 | 8.0 | 17.7 | 0.00 | 0.00 | 0.00 | 35 | 1015.8 |
| 20260503174522 | 13 | 313 | 1.6 | 17.7 | 0.00 | 0.00 | 0.00 | 36 | 1015.9 |
| 20260503174008 | 13 | 288 | 6.4 | 14.5 | 0.00 | 0.00 | 0.00 | 34 | 1016.1 |
| 20260503173507 | 13 | 275 | 1.6 | 14.5 | 0.00 | 0.00 | 0.00 | 35 | 1016.1 |
| 20260503173024 | 13 | 340 | 3.2 | 20.9 | 0.00 | 0.00 | 0.00 | 34 | 1016.0 |
| 20260503172510 | 13 | 59 | 9.7 | 20.9 | 0.00 | 0.00 | 0.00 | 35 | 1016.1 |
| 20260503172011 | 13 | 265 | 9.7 | 19.3 | 0.00 | 0.00 | 0.00 | 34 | 1016.1 |
| 20260503171510 | 12 | 177 | 0.0 | 19.3 | 0.00 | 0.00 | 0.00 | 38 | 1016.2 |
| 20260503171003 | 13 | 323 | 9.7 | 19.3 | 0.00 | 0.00 | 0.00 | 33 | 1016.3 |
| 20260503170506 | 13 | 306 | 0.0 | 19.3 | 0.00 | 0.00 | 0.00 | 34 | 1016.2 |
| 20260503151006 | 11 | 28 | 4.8 | 17.7 | 0.00 | 0.00 | 0.00 | 39 | 1017.4 |
| 20260503150509 | 10 | 349 | 8.0 | 20.9 | 0.00 | 0.00 | 0.00 | 41 | 1017.3 |
| 20260503131004 | 7 | 227 | 6.4 | 16.1 | 0.00 | 0.00 | 0.00 | 51 | 1017.6 |
| 20260503130503 | 7 | 332 | 6.4 | 16.1 | 0.00 | 0.00 | 0.00 | 53 | 1017.6 |
| 20260503110505 | 3 | 246 | 0.0 | 3.2 | 0.00 | 0.00 | 0.00 | 73 | 1016.5 |